Weather History for Ozona, TX

Change the Weather History Date:

Friday, November 9, 2012

  Actual Average Record
Temperature  
Mean Temperature 68 °F -  
Max Temperature 77 °F 70 °F 77 °F (2012)
Min Temperature 60 °F 44 °F 35 °F (2014)
Cooling Degree Days 4    
Growing Degree Days 18 (Base 50)    
Moisture  
Dew Point 56 °F    
Average Humidity 66    
Maximum Humidity 94    
Minimum Humidity 47    
Precipitation  
Precipitation 0.00 in - - ()
Sea Level Pressure  
Sea Level Pressure 30.01 in    
Wind  
Wind Speed 11 mph (South)    
Max Wind Speed 18 mph    
Max Gust Speed 26 mph    
Visibility 10 miles    
Events      
Averages and records for this station are not official NWS values.
T = Trace of Precipitation, MM = Missing Value Source: NWS Daily Summary

Daily Weather History Graph

Daily Weather History Graph

Search for Another Location

Airport:

Trip Planner

Search our weather history database for the weather conditions in past years. The results will help you decide how hot, cold, wet, or windy it might be!

Date:

Astronomy

Nov. 09, 2012 Rise Set
Actual Time 7:06 AM CST 5:50 PM CST
Civil Twilight 6:41 AM CST 6:15 PM CST
Nautical Twilight 6:12 AM CST 6:44 PM CST
Astronomical Twilight 5:43 AM CST 7:13 PM CST
Moon 2:25 AM CST (11/9) 2:48 PM CST (11/9)
Length of Visible Light 11h 34m
Length of Day
10h 43m
Waning Crescent, 23% of the Moon is Illuminated
Nov 9
Waning Crescent
Nov 13
New
Nov 20
First Quarter
Nov 28
Full
Dec 6
Last Quarter

Hourly Weather History & Observations

Time (CST) Temp. Dew Point Humidity Pressure Visibility Wind Dir Wind Speed Gust Speed Precip Events Conditions
12:15 AM 66.2 °F 53.6 °F 64% 30.02 in 10.0 mi South 10.4 mph - N/A   Clear
12:35 AM 66.2 °F 53.6 °F 64% 30.02 in 10.0 mi South 9.2 mph 16.1 mph N/A   Clear
12:55 AM 66.2 °F 53.6 °F 64% 30.02 in 10.0 mi South 9.2 mph 16.1 mph N/A   Clear
1:15 AM 66.2 °F 53.6 °F 64% 30.02 in 10.0 mi South 12.7 mph 18.4 mph N/A   Clear
1:35 AM 66.2 °F 53.6 °F 64% 30.02 in 10.0 mi South 9.2 mph 16.1 mph N/A   Clear
1:55 AM 64.4 °F 53.6 °F 68% 30.02 in 10.0 mi South 13.8 mph - N/A   Clear
2:15 AM 64.4 °F 53.6 °F 68% 30.01 in 10.0 mi South 12.7 mph 20.7 mph N/A   Clear
2:35 AM 64.4 °F 53.6 °F 68% 30.01 in 10.0 mi South 11.5 mph - N/A   Clear
2:55 AM 64.4 °F 53.6 °F 68% 30.01 in 10.0 mi South 10.4 mph 16.1 mph N/A   Clear
3:35 AM 62.6 °F 55.4 °F 77% 30.01 in 10.0 mi South 10.4 mph - N/A   Clear
3:55 AM 62.6 °F 55.4 °F 77% 30.01 in 10.0 mi South 9.2 mph - N/A   Clear
4:15 AM 62.6 °F 55.4 °F 77% 30.01 in 10.0 mi South 9.2 mph - N/A   Clear
4:35 AM 60.8 °F 55.4 °F 82% 30.01 in 10.0 mi South 11.5 mph - N/A   Clear
4:55 AM 60.8 °F 55.4 °F 82% 30.01 in 10.0 mi South 11.5 mph - N/A   Clear
5:15 AM 60.8 °F 55.4 °F 82% 30.01 in 10.0 mi South 10.4 mph - N/A   Clear
5:55 AM 60.8 °F 55.4 °F 82% 30.01 in 10.0 mi South 8.1 mph - N/A   Clear
6:15 AM 60.8 °F 57.2 °F 88% 30.02 in 10.0 mi South 9.2 mph - N/A   Scattered Clouds
6:35 AM 60.8 °F 57.2 °F 88% 30.02 in 10.0 mi South 15.0 mph - N/A   Overcast
6:55 AM 60.8 °F 59.0 °F 94% 30.02 in 10.0 mi South 13.8 mph 17.3 mph N/A   Overcast
7:15 AM 60.8 °F 59.0 °F 94% 30.03 in 10.0 mi South 11.5 mph - N/A   Overcast
7:35 AM 62.6 °F 59.0 °F 88% 30.05 in 10.0 mi SSW 10.4 mph - N/A   Overcast
7:55 AM 62.6 °F 59.0 °F 88% 30.07 in 10.0 mi SW 8.1 mph - N/A   Overcast
8:15 AM 62.6 °F 59.0 °F 88% 30.08 in 10.0 mi SSW 6.9 mph - N/A   Overcast
8:55 AM 62.6 °F 59.0 °F 88% 30.08 in 10.0 mi South 11.5 mph 16.1 mph N/A   Mostly Cloudy
9:15 AM 64.4 °F 57.2 °F 77% 30.08 in 10.0 mi South 11.5 mph 20.7 mph N/A   Mostly Cloudy
9:35 AM 64.4 °F 57.2 °F 77% 30.08 in 10.0 mi South 13.8 mph 17.3 mph N/A   Scattered Clouds
9:55 AM 66.2 °F 57.2 °F 73% 30.08 in 10.0 mi South 17.3 mph 20.7 mph N/A   Scattered Clouds
10:15 AM 68.0 °F 57.2 °F 68% 30.08 in 10.0 mi South 15.0 mph 21.9 mph N/A   Clear
10:35 AM 68.0 °F 57.2 °F 68% 30.08 in 10.0 mi South 13.8 mph - N/A   Clear
10:55 AM 66.2 °F 57.2 °F 73% 30.07 in 10.0 mi South 13.8 mph - N/A   Clear
11:15 AM 69.8 °F 59.0 °F 68% 30.07 in 10.0 mi South 15.0 mph 19.6 mph N/A   Clear
11:35 AM 69.8 °F 59.0 °F 68% 30.06 in 10.0 mi South 15.0 mph - N/A   Clear
11:55 AM 71.6 °F 59.0 °F 64% 30.05 in 10.0 mi SSW 15.0 mph 19.6 mph N/A   Clear
12:15 PM 73.4 °F 59.0 °F 61% 30.04 in 10.0 mi South 11.5 mph 20.7 mph N/A   Clear
12:35 PM 73.4 °F 59.0 °F 61% 30.03 in 10.0 mi SSW 12.7 mph 17.3 mph N/A   Clear
12:55 PM 73.4 °F 57.2 °F 57% 30.01 in 10.0 mi South 12.7 mph 19.6 mph N/A   Clear
1:15 PM 73.4 °F 57.2 °F 57% 30.00 in 7.0 mi South 11.5 mph 16.1 mph N/A   Clear
1:35 PM 75.2 °F 57.2 °F 53% 29.99 in 10.0 mi SSW 11.5 mph 16.1 mph N/A   Clear
1:55 PM 77.0 °F 57.2 °F 50% 29.99 in 10.0 mi South 13.8 mph - N/A   Clear
2:15 PM 77.0 °F 57.2 °F 50% 29.98 in 10.0 mi South 12.7 mph - N/A   Clear
2:35 PM 77.0 °F 57.2 °F 50% 29.98 in 10.0 mi South 12.7 mph 18.4 mph N/A   Clear
2:55 PM 77.0 °F 55.4 °F 47% 29.96 in 10.0 mi SSW 12.7 mph 19.6 mph N/A   Clear
3:15 PM 77.0 °F 55.4 °F 47% 29.96 in 10.0 mi South 11.5 mph - N/A   Clear
3:35 PM 77.0 °F 57.2 °F 50% 29.96 in 10.0 mi South 10.4 mph 15.0 mph N/A   Clear
3:55 PM 77.0 °F 57.2 °F 50% 29.95 in 10.0 mi South 9.2 mph - N/A   Clear
4:15 PM 77.0 °F 55.4 °F 47% 29.95 in 10.0 mi South 13.8 mph 20.7 mph N/A   Clear
4:35 PM 77.0 °F 55.4 °F 47% 29.95 in 10.0 mi South 15.0 mph - N/A   Clear
4:55 PM 77.0 °F 55.4 °F 47% 29.95 in 10.0 mi South 13.8 mph 19.6 mph N/A   Clear
5:15 PM 75.2 °F 55.4 °F 50% 29.95 in 10.0 mi South 12.7 mph 19.6 mph N/A   Clear
5:35 PM 73.4 °F 55.4 °F 53% 29.95 in 10.0 mi South 12.7 mph - N/A   Clear
5:55 PM 71.6 °F 55.4 °F 57% 29.95 in 10.0 mi South 11.5 mph - N/A   Clear
6:15 PM 71.6 °F 55.4 °F 57% 29.96 in 10.0 mi South 8.1 mph - N/A   Clear
6:35 PM 69.8 °F 55.4 °F 60% 29.96 in 10.0 mi South 8.1 mph - N/A   Clear
6:55 PM 69.8 °F 55.4 °F 60% 29.98 in 10.0 mi South 11.5 mph 16.1 mph N/A   Clear
7:15 PM 69.8 °F 55.4 °F 60% 29.98 in 10.0 mi South 8.1 mph - N/A   Clear
7:35 PM 69.8 °F 55.4 °F 60% 29.98 in 10.0 mi South 12.7 mph 16.1 mph N/A   Clear
7:55 PM 69.8 °F 55.4 °F 60% 29.99 in 10.0 mi South 8.1 mph - N/A   Clear
8:15 PM 68.0 °F 55.4 °F 64% 29.99 in 10.0 mi SSE 6.9 mph - N/A   Clear
8:35 PM 68.0 °F 55.4 °F 64% 29.99 in 10.0 mi SSE 6.9 mph - N/A   Clear
8:55 PM 66.2 °F 55.4 °F 68% 29.99 in 10.0 mi SSE 6.9 mph - N/A   Clear
9:15 PM 68.0 °F 53.6 °F 60% 29.98 in 10.0 mi SSE 8.1 mph - N/A   Clear
9:35 PM 68.0 °F 53.6 °F 60% 29.98 in 10.0 mi SSE 11.5 mph 16.1 mph N/A   Clear
9:55 PM 68.0 °F 51.8 °F 56% 29.98 in 10.0 mi South 16.1 mph 19.6 mph N/A   Clear
10:15 PM 68.0 °F 51.8 °F 56% 29.98 in 10.0 mi SSE 17.3 mph 24.2 mph N/A   Clear
10:35 PM 68.0 °F 51.8 °F 56% 29.98 in 10.0 mi South 16.1 mph 23.0 mph N/A   Clear
10:55 PM 68.0 °F 51.8 °F 56% 29.98 in 10.0 mi South 18.4 mph 24.2 mph N/A   Clear
11:15 PM 68.0 °F 51.8 °F 56% 29.98 in 10.0 mi South 16.1 mph 26.5 mph N/A   Clear